User: anonymous   Login
Location: New Town
(33.2710°N, 90.7534°W)
Time: 02:16:05
(UTC+00:00)
Language:

A-11 Canister half - Orbit

View from above orbital plane
View from above orbital plane
View from above satellite
View from above satellite

Ground track
Ground track

The orbit data is extracted from the following two-line orbital elements,

1 00051U 60009C   21131.17452411 -.00000018  00000-0  65808-3 0  9994
2 00051  47.2142  53.5334 0107201  56.3718 304.7246 12.18275318704041
Epoch (UTC): 11 May 2021 04:11:18
Eccentricity: 0.0107201
inclination: 47.2142°
perigee height: 1514 km
apogee height: 1685 km
right ascension of ascending node: 53.5334°
argument of perigee: 56.3718°
revolutions per day: 12.18275318
mean anomaly at epoch: 304.7246°
orbit number at epoch: 70404

The dashed part of the orbit path shows where the satellite is in the earth's shadow,  

DLR